Location: Alderson
(50.2799°N, 111.3440°W)
Time: 16:01:49
(UTC+00:00)

ISS - Visible Passes

Search period start: 01 December 2021 00:00
Search period end: 11 December 2021 00:00
Orbit: 417 x 423 km, 51.6° (Epoch: 01 December)

Date Brightness Start Highest point End Pass type
(mag) Time Alt. Az. Time Alt. Az. Time Alt. Az.
01 Dec -3.7 00:38:58 10° W 00:42:22 67° N 00:44:35 20° E visible
01 Dec -1.6 02:15:52 10° WNW 02:17:34 27° W 02:17:34 27° W visible
02 Dec -3.9 01:28:41 10° WNW 01:32:06 86° SSW 01:32:21 75° ESE visible
03 Dec -3.8 00:41:28 10° WNW 00:44:53 80° N 00:47:13 19° E visible
03 Dec -1.4 02:18:26 10° W 02:20:12 24° WSW 02:20:12 24° WSW visible
04 Dec -3.0 01:31:09 10° WNW 01:34:27 49° SSW 01:35:10 41° SSE visible
05 Dec -3.4 00:43:54 10° WNW 00:47:18 67° SSW 00:50:16 13° ESE visible
05 Dec -1.0 02:21:21 10° W 02:23:16 17° SW 02:23:16 17° SW visible
05 Dec -3.7 23:56:40 10° WNW 00:00:05 85° SSW 00:03:30 10° ESE visible
06 Dec -1.6 01:33:47 10° W 01:36:38 25° SW 01:38:34 15° S visible
07 Dec -2.1 00:46:24 10° W 00:49:31 35° SSW 00:52:39 10° SE visible
07 Dec -2.7 23:59:04 10° WNW 00:02:22 49° SSW 00:05:39 10° SE visible
08 Dec -0.5 01:37:23 10° WSW 01:38:34 11° SW 01:39:44 10° SSW visible
09 Dec -0.7 00:49:15 10° W 00:51:32 17° SW 00:53:49 10° S visible
10 Dec -1.1 00:01:39 10° W 00:04:28 24° SW 00:07:16 10° SSE visible
